Location: Civry
(47.2902°N, 4.6156°E)
Time: 03:57:05
(UTC+00:00)

COSMOS 2406 - Pass Details

Date: 09 April 2020
Orbit: 842 x 865 km, 71.0° (Epoch: 01 June)

Event Time Altitude Azimuth Distance (km) Brightness Sun altitude
Exits shadow 20:55:05 34° 192° (SSW) 1,364 4.0 -23.4°
Maximum altitude 20:57:37 75° 114° (ESE) 880 3.0 -23.7°
Drops below altitude 10° 21:03:20 10° 30° (NNE) 2,491 5.8 -24.4°
Sets 21:05:48 0° 29° (NNE) 3,435 6.6 -24.7°
